Location: Zagreb
(45.8000°N, 16.0000°E)
Time: 00:50:09
(UTC+01:00)

Transit 2A - Visible Passes

Search period start: 26 January 2020 00:00
Search period end: 05 February 2020 00:00
Orbit: 601 x 958 km, 66.7° (Epoch: 25 January)

Date Brightness Start Highest point End Pass type
(mag) Time Alt. Az. Time Alt. Az. Time Alt. Az.
26 Jan 8.4 03:43:46 16° ESE 03:43:46 16° ESE 03:44:54 10° ESE visible
26 Jan 7.0 05:24:19 28° SW 05:24:19 28° SW 05:27:43 10° S visible
26 Jan 7.5 18:20:23 10° SE 18:21:35 14° SE 18:21:35 14° SE visible
26 Jan 8.1 20:01:15 10° SW 20:02:08 16° SW 20:02:08 16° SW visible
27 Jan 7.5 04:51:56 23° S 04:51:56 23° S 04:54:06 10° S visible
27 Jan 6.6 19:27:03 10° SSW 19:29:49 38° SSW 19:29:49 38° SSW visible
28 Jan 8.4 04:19:38 13° SSE 04:19:38 13° SSE 04:20:15 10° SSE visible
28 Jan 5.5 18:53:02 10° SSW 18:57:21 59° ESE 18:57:26 59° ESE visible
28 Jan 8.6 20:37:35 10° W 20:37:58 12° W 20:37:58 12° W visible
29 Jan 6.0 18:19:15 10° S 18:23:19 38° ESE 18:24:58 27° ENE visible
29 Jan 7.6 20:02:47 10° WSW 20:05:30 25° WNW 20:05:30 25° WNW visible
30 Jan 6.7 17:45:43 10° SSE 17:49:19 25° ESE 17:52:26 12° ENE visible
30 Jan 6.7 19:28:10 10° WSW 19:32:16 38° NW 19:32:58 35° NNW visible
31 Jan 6.1 18:53:45 10° SW 18:58:02 56° NW 19:00:21 25° NNE visible
31 Jan 8.7 20:40:50 10° NW 20:40:53 10° NW 20:40:53 10° NW visible
01 Feb 5.5 18:19:31 10° SW 18:23:53 84° WNW 18:27:39 14° NNE visible
01 Feb 8.1 20:05:18 10° WNW 20:07:45 15° NW 20:08:10 14° NNW visible
02 Feb 5.5 17:45:28 10° SSW 17:49:47 65° ESE 17:54:07 10° NE visible
02 Feb 7.9 19:30:12 10° W 19:33:21 19° NW 19:35:24 14° N visible
03 Feb 7.5 18:55:22 10° WSW 18:59:00 26° NW 19:02:34 11° NNE visible
04 Feb 6.9 18:20:43 10° WSW 18:24:43 35° NW 18:28:47 10° NNE visible
